Location: Kissing
(48.3027°N, 10.9775°E)
Time: 04:41:37
(UTC+00:00)

STARLINK-80 - Pass Details

Date: 07 June 2020
Orbit: 487 x 491 km, 53.0° (Epoch: 10 July)

Event Time Altitude Azimuth Distance (km) Brightness Sun altitude
Exits shadow 01:56:08 - 269° (W) 2,227 6.4 -10.3°
Reaches altitude 10° 01:57:31 10° 274° (W) 1,686 5.8 -10.2°
Maximum altitude 02:01:12 46° 348° (NNW) 675 4.4 -9.8°
Drops below altitude 10° 02:04:53 10° 63° (ENE) 1,687 7.3 -9.4°
Sets 02:07:07 0° 70° (ENE) 2,570 8.2 -9.2°
